Regional Weather Roundup
Issued by NWS

Home | Current Version | Previous Version | Text Only | Print | Product List | Glossary On
Versions: 1 2 3 4 5 6 7 8 9 10 11 12 13 14 15 16 17 18 19 20 21 22 23 24 25 26 27 28 29 30 31 32 33 34 35 36 37 38 39 40 41 42 43 44 45 46 47 48 49 50
000
ASUS42 KKEY 281310
RWRKEY

FLORIDA REGIONAL WEATHER ROUNDUP FOR THE FLORIDA KEYS
NATIONAL WEATHER SERVICE KEY WEST FLORIDA
900 AM EDT TUE JUL 28 2015

...SOUTH FLORIDA AND THE KEYS...

CITY           SKY/WX    TMP DP  RH WIND       PRES   REMARKS
FORT MYERS     MOSUNNY   84  76  76 SW9       30.01R HX  93
SW REGIONAL AP MOSUNNY   83  77  82 S6        30.02R HX  92
NAPLES         SUNNY     86  77  74 SW9       30.03R HX  97
MIAMI          MOSUNNY   85  75  72 SW5       30.04R HX  93
WEST KENDALL   SUNNY     84  77  79 SW5       30.04R HX  94
HOMESTEAD      SUNNY     84  77  79 SW3       30.04R HX  94
MARATHON       SUNNY     87  77  72 CALM      30.03R HX  99
BOCA CHICA NAS SUNNY     86  76  71 S3        30.03R HX  96
KEY WEST INTL  MOSUNNY   86  76  71 S5        30.04R HX  96

...INTERNATIONAL WEATHER...

CITY           SKY/WX    TMP DP  RH WIND       PRES   REMARKS
NASSAU BAHAMAS MOSUNNY   84  79  84 SE3       30.04S HX  96
CANCUN MEXICO  MOSUNNY   86  77  74 E10       30.01R HX  97
COZUMEL MEXICO PTSUNNY   77  75  94 CALM      29.98R

ADJACENT COASTAL WATERS...

STATION/POSITION TIME  SKY/WX   TEMP    WIND        PRES    WAVE
                                AIR SEA DIR/SP/G            HT/PER
                 (UTC)          (F)     (DEG/KT/KT) (MB)    (FT/S)
PULASKI SHOAL LI 1200            84      CALM  /  1 1016.5R
SAND KEY         1250            85     180/  3/  4 1017.0R
SOMBRERO KEY     1300            86     180/  4/  5 1017.6R
LONG KEY         1200            85 86  210/  4/  5 1017.4R
MOLASSES REEF    1300            84 87  200/  4/  5 1017.2R
FOWEY ROCKS      NOT AVBL

$$


USA.gov is the U.S. government's official web portal to all federal, state and local government web resources and services.